Theta_e
288 288 288 287 287 287 287 287 288 288 288 287 287 286 286 286 287 287 287 287 287 287 287 287 287 287 287 288 288 288 289 289 290 290 290 290 290 290 289 289 289 290 290 290 290 290 290 290 290 290 290 290 290 290 290 291 291 291 292 292 292 293 293 294 295 296 296 295 295 295 296 296 296 297 297 298 298 298 298 299 299 300 302 302 303 304
288 288 287 287 287 288 288 288 288 288 287 287 286 286 286 287 287 287 287 287 287 287 287 287 287 288 288 288 288 289 289 289 290 290 289 289 289 289 289 289 289 289 289 289 289 289 289 289 289 289 289 289 290 290 291 291 292 292 293 293 293 293 293 294 294 295 295 295 295 295 295 295 296 296 296 297 297 298 298 298 299 300 301 302 303 303
288 287 287 288 288 288 289 288 288 287 287 286 286 286 287 287 288 287 287 287 287 287 288 288 288 288 288 288 289 289 289 289 289 289 289 288 288 288 288 288 288 288 288 288 288 288 288 288 289 289 289 290 290 291 292 292 292 292 293 292 292 292 293 293 294 294 294 294 295 295 295 295 295 295 296 297 297 297 297 298 299 300 301 302 302 303
288 288 288 289 289 289 288 288 287 286 286 286 286 287 287 288 288 287 287 287 288 288 288 288 288 288 288 289 289 289 289 289 288 288 288 288 288 288 288 288 288 288 288 288 288 288 288 288 288 289 289 290 290 291 291 291 291 291 291 291 291 292 292 293 293 294 294 294 294 295 295 295 295 295 296 297 297 297 298 298 299 300 301 301 301 302
288 289 289 289 289 288 287 287 286 286 286 286 287 287 288 288 288 287 287 288 288 288 288 288 288 288 288 289 289 288 288 288 288 287 287 287 287 287 287 287 287 287 287 287 287 287 288 288 288 288 289 289 289 290 290 290 290 290 290 291 291 292 292 293 293 293 294 294 295 295 295 295 295 295 296 297 297 297 297 298 299 300 300 300 301 301
289 289 289 288 287 287 286 286 286 286 286 287 288 288 288 288 287 288 288 288 288 288 288 288 288 288 288 288 288 287 287 287 287 287 287 287 287 287 287 287 287 287 287 287 287 287 287 287 287 288 288 288 289 289 289 289 290 290 291 292 292 293 293 293 293 293 293 294 294 295 295 295 294 294 295 296 296 297 297 298 298 299 299 299 300 301
289 288 287 287 286 286 286 286 286 287 287 288 288 288 288 288 288 288 289 289 288 288 288 288 287 287 287 287 287 286 286 286 286 286 286 286 286 286 286 286 286 286 286 286 286 286 286 287 287 287 288 288 288 289 289 290 290 291 291 292 292 292 293 293 292 292 292 292 293 294 294 294 294 294 294 295 296 297 297 297 298 298 298 299 300 300
287 287 286 286 286 286 286 286 287 288 288 288 288 288 288 289 289 289 289 288 288 287 287 287 287 286 286 286 286 286 286 286 286 285 285 285 285 285 286 286 286 286 286 286 286 286 286 286 287 287 288 288 289 289 290 290 290 290 290 291 291 291 291 291 291 291 291 291 292 293 294 294 294 294 294 295 296 296 297 297 297 297 298 298 299 300
286 286 286 286 286 287 287 288 288 288 288 288 288 288 289 289 288 288 287 287 286 286 286 286 286 286 285 285 285 285 285 285 285 285 285 285 285 285 285 285 285 285 285 285 285 286 286 287 287 288 288 289 289 289 290 290 290 290 290 290 290 290 290 290 291 291 291 291 292 293 294 294 294 294 295 295 295 296 297 297 297 297 298 298 299 300
286 287 287 287 287 288 288 288 288 287 287 288 288 288 288 288 287 287 286 286 285 285 285 285 285 285 285 285 285 285 285 285 285 285 285 285 285 285 285 285 285 285 285 285 285 286 286 287 287 288 288 289 289 289 289 289 289 289 289 289 290 290 290 290 291 291 292 292 292 293 293 293 294 294 294 295 295 295 296 296 297 297 297 298 299 299
287 288 288 288 288 288 287 287 286 286 287 287 287 287 287 286 286 285 285 285 285 285 284 285 285 285 285 285 285 285 284 284 284 284 284 284 284 285 285 284 284 284 284 285 285 286 286 287 287 287 288 288 288 288 288 288 288 289 289 289 290 290 290 291 291 291 292 292 292 293 293 293 293 294 294 294 295 295 296 296 296 296 297 297 298 298
288 288 288 287 287 286 286 285 285 286 286 287 286 286 285 285 285 285 285 284 284 284 284 284 284 285 285 285 284 284 284 284 284 284 284 284 284 284 284 284 284 284 284 285 285 286 286 286 286 286 286 286 287 287 287 288 288 288 289 289 290 290 290 291 291 292 292 292 293 293 293 294 294 294 294 294 295 295 295 295 295 296 296 297 297 297
288 287 286 286 285 285 285 285 285 285 286 286 285 285 285 284 284 284 284 284 284 284 284 284 284 284 284 284 284 284 284 284 284 284 284 284 284 284 284 284 284 284 284 284 284 285 285 285 285 285 286 286 286 287 287 287 288 288 288 289 289 290 290 291 291 292 292 293 293 293 293 293 293 293 294 294 294 295 295 295 295 295 296 297 297 297
286 286 285 285 285 285 284 284 284 285 285 285 284 284 284 284 284 284 284 284 284 284 284 284 284 284 284 283 283 283 283 284 284 284 284 284 284 284 284 284 284 284 284 284 284 284 284 285 285 285 285 285 286 286 286 287 287 288 288 289 290 290 291 291 292 292 293 293 293 293 293 293 293 293 293 293 294 294 295 295 295 295 296 296 297 297
286 285 285 285 284 284 284 284 284 284 284 284 284 284 283 283 283 283 283 283 284 284 284 284 284 284 283 283 283 283 284 284 284 284 284 284 284 284 283 284 284 284 284 284 284 284 284 284 285 285 285 285 285 286 286 287 287 288 289 289 290 291 291 291 292 292 293 292 292 292 292 292 292 292 292 293 294 294 294 294 295 295 295 296 296 297
285 285 285 284 284 284 284 284 284 284 283 283 283 283 283 283 283 283 283 283 284 284 284 284 284 284 283 283 283 284 284 285 284 284 284 284 284 283 283 284 284 284 284 284 284 284 284 284 285 285 285 285 286 286 287 287 288 289 289 290 290 291 291 291 291 292 292 291 291 291 291 291 291 292 292 293 293 293 294 294 294 295 295 295 296 296
285 284 284 284 284 284 283 283 283 283 283 283 283 283 283 283 283 283 283 283 284 284 284 284 284 284 284 284 284 284 285 284 284 284 284 283 283 283 283 284 284 284 284 284 284 284 284 285 285 285 285 286 286 287 288 288 289 289 290 290 290 290 290 290 290 290 290 290 290 291 291 291 292 292 292 292 293 293 294 294 294 294 295 295 294 294
284 284 284 284 283 283 283 283 283 283 283 283 283 283 283 283 283 283 283 283 284 284 284 284 284 284 284 285 285 285 284 284 283 283 283 283 283 283 283 283 284 284 284 284 284 284 285 285 285 285 286 286 287 288 288 288 288 289 289 290 290 290 289 289 289 289 290 290 290 290 291 291 292 292 292 292 292 293 293 294 294 294 294 293 293 293
284 283 283 283 283 283 282 283 283 283 283 283 283 283 283 283 283 283 283 284 284 284 284 284 284 285 285 285 285 284 284 283 283 283 283 283 283 283 283 283 284 284 284 284 284 284 285 285 285 286 287 288 288 288 288 288 288 288 289 289 289 289 289 289 289 289 290 290 290 291 291 292 292 292 292 292 293 293 293 293 293 293 292 292 293 293
283 283 283 282 282 282 282 283 283 283 283 283 283 283 283 283 283 284 284 284 284 285 285 285 285 285 285 285 284 284 283 283 283 283 283 283 283 283 283 283 284 284 284 284 284 285 285 286 287 288 288 288 288 287 287 287 287 288 288 288 288 288 288 289 289 290 290 290 291 291 291 291 292 292 292 292 292 292 292 292 292 292 292 293 294 294
283 282 282 282 282 282 283 283 283 283 283 283 283 283 284 284 284 284 284 285 285 285 284 284 284 284 284 284 283 283 282 282 283 283 283 283 283 283 283 284 284 284 284 284 285 286 286 287 287 286 286 286 286 287 287 287 287 287 287 287 288 288 288 289 289 290 290 291 291 291 291 291 291 291 290 291 291 291 291 291 292 293 293 294 295 295
282 282 282 282 282 282 283 283 283 283 283 284 284 284 284 284 285 285 285 284 284 284 284 284 284 284 283 283 283 282 282 282 282 283 283 283 283 283 283 284 284 284 285 285 286 287 287 286 286 285 285 286 286 286 287 287 287 287 287 287 288 288 288 289 289 290 290 291 291 291 290 290 290 290 290 291 291 292 292 292 293 293 294 294 294 294
282 282 282 282 283 283 283 283 283 284 284 284 284 285 285 285 284 284 284 283 284 284 284 284 283 283 283 282 282 282 282 282 282 282 283 283 283 283 283 283 284 285 285 286 286 285 285 285 285 285 285 285 286 286 286 286 286 286 287 287 287 288 288 289 289 290 290 291 290 290 290 289 290 290 291 291 292 292 292 293 293 293 293 293 293 292
282 282 283 283 283 284 284 284 284 284 284 284 284 284 284 284 283 283 283 283 284 284 284 283 283 282 282 282 282 282 282 282 282 282 282 283 283 283 283 284 285 285 285 285 285 284 284 284 284 285 285 285 285 285 285 285 286 286 286 287 287 288 288 289 289 290 290 290 290 289 289 290 290 290 291 291 292 292 292 292 292 292 292 292 292 292
283 283 283 284 284 284 284 284 284 283 283 283 283 283 283 283 283 283 283 283 283 283 283 282 282 282 282 282 282 282 281 282 282 282 282 283 283 284 284 285 285 285 284 284 284 284 284 284 284 284 284 284 284 284 285 285 286 286 287 287 288 288 288 289 289 289 289 289 289 289 289 289 290 290 290 291 291 291 290 290 291 291 291 291 291 291
284 284 284 284 284 284 283 282 282 282 282 282 282 282 283 283 283 283 283 283 283 282 282 282 282 282 282 282 281 281 281 282 282 282 283 283 284 284 284 284 284 283 283 283 283 284 284 284 284 284 284 284 284 284 285 285 286 286 287 287 288 288 288 288 288 288 288 288 288 289 289 289 289 289 290 290 290 290 290 290 290 290 291 291 291 291
284 284 284 283 283 282 282 281 282 282 282 282 282 282 283 283 283 283 283 283 282 282 282 282 282 282 282 282 282 282 282 282 282 282 283 284 284 284 284 283 283 283 283 283 283 283 283 283 284 284 284 284 284 284 285 285 286 286 287 287 288 288 288 288 288 288 288 288 288 288 288 289 289 289 289 289 289 290 290 290 290 290 291 291 291 291
283 283 282 282 281 281 281 281 281 281 281 282 282 282 283 283 283 283 282 282 282 281 281 282 282 282 282 282 282 282 282 282 282 283 283 283 283 283 283 283 283 283 283 283 283 283 283 284 284 284 284 284 284 284 285 285 286 286 287 287 287 287 287 287 287 287 287 287 288 288 288 289 289 289 289 289 290 290 290 290 290 290 290 290 291 291
282 281 281 281 281 281 281 281 281 281 281 281 282 282 283 283 282 282 282 281 281 281 281 281 282 282 282 282 282 282 282 282 282 283 283 283 283 283 282 283 283 283 283 283 283 283 284 284 284 284 284 284 284 285 285 285 286 286 287 287 286 286 286 286 287 287 287 287 288 288 288 289 289 289 289 289 289 289 289 290 290 290 290 290 291 291
281 280 280 280 280 280 280 280 280 280 281 281 282 282 282 282 282 281 281 281 281 281 281 281 281 282 282 282 282 282 282 282 282 282 282 282 282 282 282 283 283 283 283 283 283 284 284 284 284 284 284 284 285 285 285 285 286 286 286 286 286 285 286 286 286 286 287 287 288 288 288 288 288 288 288 289 289 289 289 289 289 290 290 290 291 291
280 280 280 280 280 280 280 280 280 280 281 281 281 282 282 281 281 281 281 281 281 281 281 281 281 282 282 282 282 282 282 282 282 282 282 282 282 282 283 283 283 283 283 283 284 284 284 284 284 284 284 284 284 285 285 285 285 285 285 285 285 285 285 286 286 286 287 287 287 287 287 287 287 287 288 288 288 288 288 289 289 290 290 291 291 291
280 280 280 280 280 280 280 280 280 281 281 281 281 281 281 281 281 281 281 281 281 281 281 281 281 281 282 282 282 282 282 282 282 282 282 282 282 283 283 283 283 283 283 283 283 284 284 284 284 284 284 284 284 285 285 285 285 285 285 285 285 285 286 286 286 286 286 286 286 286 286 286 286 286 287 287 287 288 288 289 289 290 290 291 291 292
280 280 280 280 280 280 280 280 281 281 281 281 281 281 281 281 281 281 281 281 281 281 281 281 281 281 281 282 282 282 282 282 282 282 282 282 282 283 283 283 283 283 283 283 283 284 284 284 284 284 284 284 285 285 285 285 285 285 285 285 285 285 285 285 285 285 285 285 285 285 285 285 285 286 286 286 287 287 288 289 289 290 290 291 291 292
280 280 280 280 280 280 280 281 281 281 281 281 281 281 281 281 280 280 280 280 280 281 281 281 281 281 281 281 281 282 282 282 282 282 282 282 282 283 283 283 283 283 283 283 283 283 284 284 284 284 284 285 285 285 285 285 285 285 285 285 285 284 284 284 284 284 284 284 284 284 284 284 285 285 285 286 287 287 288 289 289 290 291 291 292 292
280 280 280 280 281 281 281 281 281 281 281 281 281 281 281 280 280 280 280 280 280 280 281 281 281 281 281 281 281 282 282 282 282 282 282 282 282 283 283 283 283 283 283 283 283 283 284 284 284 284 285 285 285 285 284 285 285 285 284 284 284 283 283 283 283 283 283 283 283 283 284 284 284 285 285 286 286 287 288 289 290 291 291 292 293 293
280 281 281 281 281 281 281 281 281 281 281 281 281 280 280 280 280 280 280 280 280 280 281 281 281 281 281 281 281 281 282 282 282 282 282 282 282 282 283 283 283 283 283 283 283 283 284 284 285 285 285 285 285 284 284 284 284 284 283 283 283 283 283 283 283 283 283 283 283 283 284 284 284 285 285 286 287 288 289 290 291 291 292 292 293 293
281 281 281 281 281 281 281 281 281 281 281 280 280 280 280 280 280 280 280 280 280 280 280 281 281 281 281 281 281 281 281 282 282 282 282 282 282 282 282 283 283 283 283 283 284 284 284 284 284 284 284 284 284 284 284 284 283 283 283 283 283 282 282 283 283 283 283 283 283 284 284 284 285 285 286 287 288 289 290 290 291 291 292 292 293 293
281 281 281 281 281 281 281 281 281 280 280 280 280 280 280 280 280 280 280 280 280 280 280 280 281 281 281 281 281 281 281 281 281 281 282 282 282 282 282 282 283 283 283 283 284 284 284 284 284 284 283 283 283 283 283 283 282 282 282 282 282 282 282 282 283 283 283 283 284 284 284 285 285 286 287 288 289 289 289 290 290 291 291 292 293 293
281 281 281 281 281 281 281 280 280 280 280 280 280 280 280 280 280 280 280 280 280 280 280 280 280 281 281 281 281 281 281 281 282 282 282 282 282 282 282 282 283 283 283 283 284 284 284 284 283 283 283 282 282 282 282 282 282 282 282 282 282 282 283 283 283 283 283 283 284 284 285 285 286 287 288 289 289 289 290 290 290 291 291 292 293 294
281 281 281 281 281 280 280 280 280 280 280 280 280 280 280 280 280 280 280 280 280 280 280 280 280 281 281 281 281 281 281 281 282 282 282 282 282 282 282 283 283 283 283 283 283 283 283 282 282 282 282 281 281 281 282 282 282 282 282 282 283 283 283 283 283 283 283 284 284 285 286 287 287 288 289 289 289 290 290 290 290 291 292 292 293 295
281 281 281 280 280 280 280 280 280 280 280 280 280 280 280 280 280 280 280 280 280 280 280 280 280 281 281 281 281 281 281 281 282 282 282 282 282 283 283 283 283 283 283 283 282 282 281 281 281 281 281 281 281 281 281 282 282 282 282 282 282 283 283 283 283 284 284 284 285 286 287 287 288 289 289 289 289 290 290 290 291 292 293 294 294 295
281 280 280 280 280 280 280 280 280 280 280 280 280 280 280 280 280 280 280 280 280 280 280 281 281 281 281 281 281 281 281 282 282 282 282 283 283 283 283 283 283 283 283 282 281 281 280 280 280 280 280 281 281 281 281 281 281 282 282 282 282 282 283 283 284 284 285 285 286 286 287 288 288 288 289 289 290 290 291 291 292 293 294 295 296 296
280 280 280 280 280 280 280 280 280 280 280 280 280 280 280 280 280 280 280 280 280 280 280 281 281 281 281 281 281 281 282 282 282 282 282 282 282 282 283 283 283 282 281 281 280 280 280 280 280 280 280 280 281 281 281 281 281 282 282 282 282 283 283 284 284 284 285 285 286 286 287 288 288 289 289 290 291 291 292 292 293 294 295 295 296 297
280 280 280 280 280 280 280 280 280 280 280 280 280 280 280 280 280 280 280 280 280 280 280 281 281 281 281 281 281 282 282 282 282 282 282 282 282 283 283 283 282 281 280 280 280 280 279 279 279 280 280 280 280 281 281 281 281 282 282 282 283 283 283 284 284 284 285 285 286 287 288 288 289 289 290 291 291 292 292 293 293 294 295 296 296 297
280 280 280 280 280 280 280 280 280 280 280 280 280 280 280 280 280 280 280 280 280 280 281 281 281 281 281 281 282 282 282 282 282 282 282 282 282 282 282 282 281 280 280 279 279 279 279 279 279 279 279 280 280 280 281 281 282 282 282 283 283 283 283 283 284 284 285 285 286 287 288 288 289 289 290 291 292 292 293 293 294 294 295 295 296 297
280 280 280 280 280 280 280 280 280 280 280 280 280 280 280 280 280 280 280 280 280 281 281 281 281 281 281 281 281 282 282 282 282 282 282 282 282 281 281 280 280 279 279 279 279 279 279 279 279 279 279 280 280 281 281 281 282 282 283 283 283 283 283 283 284 284 285 286 287 288 288 289 289 290 291 292 292 293 293 293 294 294 294 295 295 296
280 280 279 279 279 279 279 280 280 280 280 280 280 280 280 280 280 280 280 280 281 281 281 281 281 281 281 281 281 282 282 282 282 282 281 281 281 281 280 280 279 279 278 278 278 278 279 279 279 279 279 280 280 281 281 282 282 282 283 283 283 283 283 284 284 285 286 287 287 288 288 289 289 290 291 292 293 293 293 293 294 294 294 294 294 295
279 279 279 279 279 279 279 279 280 280 280 280 280 280 280 280 280 280 281 280 280 280 281 281 281 281 281 281 282 282 282 282 282 281 281 281 281 280 280 279 278 278 278 278 279 279 279 280 280 280 280 280 280 281 282 282 283 283 283 283 283 283 283 284 285 286 287 287 288 288 289 289 290 290 291 292 293 293 293 293 293 294 294 294 294 295
279 279 279 279 279 279 279 279 279 280 280 280 280 280 280 280 280 280 280 280 280 280 280 281 281 281 281 281 282 282 282 282 281 281 281 281 280 280 279 279 278 278 278 279 279 280 281 281 282 281 281 281 281 282 283 283 283 283 283 283 283 283 284 285 286 287 287 288 288 289 290 290 290 291 292 292 292 293 293 293 293 294 294 294 294 294
279 279 279 279 279 279 279 279 279 280 280 280 280 280 280 280 280 280 280 280 280 280 280 281 281 281 281 282 282 282 281 281 281 280 280 280 280 280 279 278 278 278 278 279 279 280 281 282 282 282 282 282 283 283 283 283 283 283 283 284 284 284 284 285 286 287 287 288 289 289 290 291 291 291 292 292 292 293 293 293 293 293 294 294 294 294
279 279 279 279 279 279 279 279 279 280 280 280 280 280 280 280 280 280 280 280 280 280 280 281 281 281 281 282 282 281 281 281 280 280 280 280 280 279 279 278 278 278 278 279 279 280 281 281 281 282 282 283 283 283 283 283 283 284 284 284 284 285 285 286 286 287 288 288 289 289 290 291 291 291 292 292 292 292 293 293 293 293 293 294 294 294
Wind_Speed
33 34 35 36 36 36 36 34 32 32 33 34 35 36 37 36 35 35 35 35 36 36 35 34 34 34 35 35 35 35 35 34 34 34 35 36 36 37 37 37 37 37 37 38 38 39 40 42 43 44 45 45 45 44 44 43 43 42 41 41 41 40 39 37 36 35 36 36 36 36 34 33 33 34 35 35 35 35 35 35 35 36 37 37 36 35
34 35 36 35 35 34 33 31 30 30 33 36 37 38 37 36 35 35 34 35 35 34 33 33 33 33 34 34 34 33 33 33 33 34 35 35 36 36 37 37 37 37 38 39 40 41 42 44 44 45 45 44 44 43 42 41 40 39 39 40 40 39 38 37 36 35 34 35 34 33 32 32 33 34 34 35 35 35 35 35 35 35 36 36 35 34
34 35 35 33 30 29 29 30 31 32 35 37 39 38 37 35 34 34 34 34 34 32 31 30 31 32 33 32 32 31 32 32 33 33 34 35 35 36 36 37 37 38 39 40 41 42 43 44 44 44 43 43 42 41 40 39 38 37 38 38 39 38 38 37 36 34 34 33 32 31 31 32 32 33 33 34 34 34 34 34 34 34 35 35 34 33
32 31 31 28 26 26 28 31 34 36 37 38 38 36 34 32 32 33 34 34 32 30 29 29 31 32 32 31 30 30 31 31 33 34 34 35 35 36 37 38 39 40 41 41 42 42 43 43 43 43 42 41 40 39 39 38 37 37 37 38 38 38 38 37 36 35 34 33 32 31 31 31 31 31 31 31 32 32 32 32 32 32 32 33 33 32
28 25 25 25 27 29 32 35 37 38 38 36 34 32 30 30 32 34 34 32 29 28 28 30 32 33 32 31 30 30 31 32 33 34 35 36 37 38 39 39 40 40 41 41 41 41 42 42 42 42 41 40 40 39 38 37 37 37 37 37 37 37 36 36 35 34 34 33 32 32 32 32 32 31 31 31 31 31 30 30 30 30 31 31 31 31
24 24 26 28 31 33 35 36 36 36 34 31 29 28 28 31 33 33 31 28 27 27 29 32 34 33 32 30 30 30 32 33 34 35 36 37 38 39 39 39 39 39 39 39 40 41 41 42 41 41 40 40 39 38 38 37 37 37 37 36 36 35 34 34 33 33 33 33 33 33 33 33 33 32 32 31 31 31 30 30 30 30 30 30 30 29
26 29 31 33 34 35 35 35 34 32 28 26 25 27 30 31 31 29 27 26 26 27 30 32 32 31 30 30 31 32 33 34 34 35 36 37 38 38 38 38 37 37 37 38 39 40 41 41 40 40 39 39 38 38 37 37 37 36 36 35 35 34 34 33 33 34 34 35 35 35 35 34 33 33 32 32 31 30 30 29 29 29 29 29 29 28
30 33 34 34 34 33 32 30 28 25 23 23 25 27 29 28 26 25 25 26 27 29 30 31 30 30 30 31 32 33 33 33 34 34 35 36 36 36 36 35 35 36 37 38 39 40 40 40 39 39 38 38 38 37 37 37 37 36 36 36 36 36 35 35 35 36 36 37 36 36 35 34 33 32 32 31 29 29 28 29 29 29 29 28 28 28
31 32 33 32 29 27 25 23 21 20 22 24 24 24 24 24 24 25 27 30 31 32 31 31 31 32 33 33 33 33 32 32 33 34 34 35 35 34 34 34 34 35 36 37 38 39 39 39 38 38 37 37 37 37 37 37 37 37 37 37 37 37 36 36 36 37 37 37 36 36 35 33 32 31 30 29 28 27 27 28 29 29 29 28 27 27
32 30 28 25 22 19 18 19 21 24 26 25 23 21 21 22 24 27 29 32 33 33 32 32 32 33 34 34 32 31 31 32 33 34 35 35 35 35 34 33 33 34 35 36 37 37 38 37 37 37 36 37 37 37 37 38 38 38 37 37 37 36 36 36 35 35 35 35 35 34 33 32 31 31 30 28 27 27 27 28 29 29 28 27 27 27
27 23 19 17 16 17 19 23 27 29 28 25 23 23 22 22 24 26 26 29 32 34 33 33 33 32 32 32 31 30 31 32 34 35 35 34 33 32 32 31 32 33 34 35 36 36 36 36 36 36 36 37 37 37 37 37 37 37 37 36 35 35 34 34 34 33 33 33 33 33 33 32 31 30 29 29 28 27 27 28 29 30 29 28 27 27
16 14 14 16 19 22 25 28 31 31 28 23 22 22 24 26 27 27 26 27 30 33 33 33 32 32 31 30 30 31 32 33 34 34 33 32 30 28 28 28 29 31 32 33 34 35 35 35 35 36 36 37 37 37 36 36 36 36 35 35 35 34 33 33 32 32 32 32 32 32 32 31 30 29 29 29 28 28 28 29 30 30 29 28 28 27
12 15 18 22 24 25 27 29 31 30 28 25 21 20 23 28 30 30 29 29 30 31 31 32 32 31 31 30 31 32 33 34 34 33 31 29 27 26 26 27 29 30 32 33 33 34 34 34 35 35 35 35 35 35 35 35 35 35 34 34 34 33 33 32 32 31 31 30 30 30 30 30 29 29 29 29 28 28 29 30 31 30 30 29 28 27
16 20 21 22 24 26 28 29 28 26 25 25 25 25 28 30 31 30 29 29 30 31 31 30 30 31 31 31 32 32 33 32 31 29 27 26 25 25 26 27 29 31 32 33 33 34 34 33 33 33 34 33 33 33 33 33 33 33 33 33 33 33 33 32 32 30 29 29 29 29 30 30 31 31 31 31 30 29 29 30 30 30 29 28 27 27
18 19 16 15 19 25 28 28 27 26 26 27 28 29 30 31 30 29 27 27 29 31 30 30 30 31 32 31 31 31 30 27 25 24 24 25 26 26 27 28 30 32 33 33 32 32 33 32 32 32 32 33 33 33 32 32 32 33 33 33 34 34 33 32 31 30 29 29 30 31 32 33 34 34 33 32 31 30 30 30 29 29 29 27 27 27
20 18 13 13 17 24 28 28 27 27 28 29 29 29 28 28 28 28 27 27 28 29 27 24 23 23 27 31 31 27 23 20 18 19 22 26 29 29 28 28 30 32 32 32 31 32 32 32 32 32 32 31 31 31 31 31 32 32 33 34 35 35 33 32 31 30 31 32 33 34 35 36 35 35 34 33 32 31 31 30 30 29 28 28 28 28
21 20 18 17 19 24 28 29 29 28 28 28 28 28 27 27 27 28 27 27 27 25 21 15 10 10 14 26 28 23 16 15 18 21 25 28 32 32 30 28 29 30 32 32 31 31 31 31 31 31 31 30 30 30 30 30 31 32 33 34 35 35 34 33 33 34 35 36 36 37 37 37 36 35 34 33 32 31 30 30 30 30 29 29 29 30
21 22 22 20 21 25 29 29 29 29 28 28 28 28 28 29 29 29 30 29 26 22 18 13 9 8 8 9 16 20 16 18 22 25 27 30 32 33 30 28 28 30 31 31 31 31 31 31 31 31 30 29 28 28 29 31 33 34 34 34 34 34 34 35 35 36 37 38 38 38 37 36 36 35 35 34 32 31 30 30 31 31 31 31 31 31
22 24 24 24 25 27 29 28 28 27 27 27 27 28 29 30 31 30 30 29 26 22 17 12 10 10 10 12 18 23 22 23 25 26 26 28 31 32 29 27 27 29 30 30 31 31 30 30 30 29 28 27 27 29 32 34 34 34 34 34 35 35 36 37 37 38 38 38 38 37 37 35 34 34 34 33 32 31 31 31 32 32 31 32 32 32
24 26 26 27 27 28 27 27 27 27 27 29 30 30 29 30 30 28 26 24 22 22 21 17 15 17 20 22 25 27 27 27 26 25 25 27 29 30 28 26 26 28 29 30 31 30 29 28 28 27 26 26 28 31 33 34 35 35 35 36 36 37 37 38 38 37 37 37 37 36 35 34 33 33 32 32 32 32 32 32 32 31 31 31 31 31
26 28 29 29 27 26 26 27 29 29 30 31 30 29 28 26 24 22 21 20 21 23 24 21 22 24 26 27 28 29 29 27 25 24 24 25 26 27 26 26 26 28 29 30 29 27 26 25 25 25 27 29 31 33 34 34 35 36 37 37 38 38 38 38 37 37 36 36 35 34 33 32 32 32 33 32 32 32 32 31 31 31 30 30 29 29
27 29 30 30 28 27 27 28 30 30 30 30 28 25 24 22 20 20 21 24 25 26 26 25 27 29 30 29 29 29 29 26 25 24 22 16 19 25 27 26 26 27 26 25 23 22 22 24 25 27 29 30 31 32 33 35 36 37 38 38 38 37 37 36 36 35 35 34 33 32 31 32 33 33 33 32 32 31 31 31 30 30 29 28 28 28
29 30 30 30 29 28 28 28 28 28 28 26 26 25 24 24 25 27 28 29 28 27 27 28 30 31 30 29 29 29 28 25 24 24 21 13 15 23 27 26 24 23 21 21 21 23 25 27 29 29 30 30 31 32 34 36 37 38 38 38 37 36 36 35 34 34 33 32 31 31 31 32 33 33 33 32 32 31 30 30 29 29 29 28 28 28
30 30 30 28 27 26 26 26 26 27 27 27 27 27 28 29 30 31 30 29 28 27 28 30 30 29 28 28 28 28 26 24 24 23 20 13 15 22 26 24 21 20 21 23 26 27 28 29 29 29 29 29 31 33 34 35 36 37 37 36 36 35 34 34 33 32 30 30 30 31 32 33 33 33 33 33 32 32 31 30 30 30 30 30 30 30
30 29 27 26 26 27 28 29 30 31 32 32 32 32 32 32 32 31 29 28 27 27 28 26 22 20 23 25 25 25 25 24 23 22 21 15 17 23 24 21 19 20 24 28 29 29 28 28 28 28 28 29 31 32 33 34 35 35 35 35 34 34 33 32 30 29 29 29 30 32 33 34 34 34 34 34 33 33 32 32 31 31 31 31 31 31
29 28 27 27 28 30 33 34 35 35 35 34 33 32 31 31 30 29 28 27 26 25 23 18 13 13 18 21 21 22 24 24 23 23 22 18 17 19 22 23 23 24 26 28 28 27 26 28 28 29 29 29 30 32 32 33 33 34 33 33 32 31 30 28 28 28 29 31 33 34 35 35 34 34 34 34 33 33 33 32 32 32 32 32 32 32
26 26 26 28 30 33 34 34 34 34 34 33 33 32 31 30 28 26 25 24 24 23 19 12 10 11 13 15 17 20 24 24 23 23 22 20 16 15 20 23 23 23 24 26 27 26 26 27 27 28 28 28 29 31 31 31 31 31 31 30 29 28 27 27 28 30 32 33 34 35 35 34 34 33 33 33 33 33 33 33 33 32 32 32 32 32
23 24 27 30 32 33 34 34 33 33 33 32 33 32 31 29 26 23 21 23 24 22 17 12 11 10 9 8 14 21 25 24 23 22 20 19 14 12 20 24 24 24 24 25 27 27 26 25 25 26 26 27 27 28 29 29 28 27 27 26 25 25 27 29 31 32 33 34 34 34 34 34 33 33 33 33 33 33 33 33 33 32 32 31 30 30
25 28 30 32 32 33 33 32 32 32 32 32 31 31 29 27 24 23 23 24 24 21 16 13 11 10 10 10 16 22 23 22 21 21 20 18 14 15 23 24 24 24 23 21 22 24 23 23 22 22 23 24 25 25 26 25 24 23 23 23 25 27 28 30 31 32 33 33 33 33 33 33 33 33 33 33 34 34 34 33 33 32 31 30 29 28
30 31 32 32 32 31 31 31 31 30 30 30 30 28 27 26 24 24 25 25 23 20 17 14 13 12 10 11 12 13 14 19 21 21 21 16 13 15 23 23 23 23 22 15 12 12 15 17 19 20 20 22 23 24 24 24 22 22 22 23 25 27 28 29 30 30 30 31 31 32 32 33 33 33 34 34 34 34 34 34 33 31 30 28 28 28
31 31 31 31 31 30 30 29 29 28 28 28 27 26 25 24 24 24 25 24 23 21 20 18 17 17 14 10 7 5 5 17 23 24 23 18 15 16 21 20 21 22 21 15 8 5 7 9 15 20 21 23 24 25 24 23 21 21 23 24 25 25 26 26 26 27 28 29 30 31 32 33 33 34 34 34 35 35 35 34 33 31 30 28 27 27
30 30 30 30 30 29 29 28 27 27 27 26 26 25 24 24 24 24 24 24 23 22 22 22 21 20 19 12 9 8 8 20 26 27 25 21 19 20 21 20 20 22 22 21 14 7 6 5 12 21 23 24 25 25 23 21 21 22 23 23 23 23 23 23 24 26 28 29 30 31 32 32 33 33 34 34 34 34 34 34 34 32 30 28 27 27
30 29 29 29 29 28 27 27 27 26 26 26 25 25 24 24 24 24 23 23 23 23 22 22 21 20 20 17 16 16 19 25 27 27 26 22 20 19 21 21 20 21 22 22 20 15 11 7 11 18 23 24 24 23 21 21 21 21 21 20 20 20 22 23 25 27 29 29 29 29 30 30 31 32 32 33 33 33 34 34 33 32 31 29 28 27
29 29 29 28 27 27 26 26 26 26 26 25 25 24 24 24 24 23 24 23 24 24 23 23 22 21 19 17 16 18 23 27 28 27 26 24 21 19 22 21 20 20 20 18 19 18 15 14 12 12 14 21 23 22 21 20 19 19 18 18 19 21 23 24 25 26 27 27 27 28 28 29 29 30 30 30 31 31 31 31 31 31 31 30 29 27
28 27 27 26 26 26 26 26 26 26 25 25 24 24 24 24 24 24 24 24 24 25 25 24 24 23 22 19 15 16 22 27 28 28 27 25 23 21 21 20 20 20 17 14 13 11 9 12 13 11 9 13 18 21 21 19 17 17 19 20 21 23 24 25 26 26 26 26 26 27 27 28 28 28 29 29 29 29 29 29 29 30 30 31 30 29
26 25 25 25 25 25 25 26 25 25 25 24 24 24 24 24 25 25 25 26 26 26 26 26 26 26 26 25 22 21 24 28 30 30 29 27 25 23 20 21 22 22 18 15 12 9 7 8 11 13 12 9 11 16 19 19 18 19 21 22 23 24 25 26 26 25 25 25 25 25 26 27 28 29 29 29 28 28 28 28 28 28 29 30 31 31
23 23 24 24 25 25 25 25 25 25 25 25 25 25 25 25 26 26 26 27 27 27 27 27 27 27 27 27 27 28 29 30 31 32 32 31 29 26 22 22 24 24 20 17 14 12 9 8 9 10 10 8 7 9 15 20 23 23 23 23 23 24 26 27 27 25 25 24 24 25 26 27 28 28 28 28 27 27 26 26 26 26 26 28 29 32
22 22 23 24 24 24 24 24 24 25 25 25 26 26 26 27 27 27 27 27 27 27 28 27 27 28 29 29 30 32 33 33 34 35 36 34 32 29 25 23 24 24 23 21 19 16 10 8 8 8 8 7 9 14 19 22 22 23 24 25 24 24 25 26 26 25 23 23 24 25 26 27 28 27 27 26 25 24 24 24 24 23 23 24 26 30
21 22 23 24 24 24 24 24 25 25 26 26 26 26 27 27 28 27 26 26 26 26 27 27 27 28 29 31 32 32 33 33 34 35 35 34 32 30 27 24 23 24 23 22 20 17 12 8 7 7 8 8 11 17 22 21 20 21 23 25 25 24 23 23 23 23 23 24 24 25 25 26 26 25 23 23 22 21 21 21 21 21 21 21 23 25
22 23 24 25 25 25 25 25 26 26 27 27 27 27 26 26 26 26 26 25 25 26 26 27 27 27 28 28 29 30 31 32 32 32 32 31 31 29 28 25 24 23 22 19 17 15 13 12 11 11 10 9 9 11 15 18 19 20 21 18 18 21 24 24 24 24 25 24 24 24 24 24 23 22 21 21 20 19 19 20 20 19 18 18 19 19
22 23 24 25 26 25 25 26 26 27 27 27 27 26 26 25 25 25 25 25 25 25 25 25 25 25 26 27 27 28 28 29 29 28 28 28 28 28 28 26 24 22 18 16 15 16 17 17 16 15 15 12 12 12 13 16 18 20 20 14 15 21 26 26 25 24 24 23 23 23 22 22 22 21 21 20 20 19 19 18 18 17 15 15 14 13
23 24 25 25 26 26 26 26 27 27 26 26 25 24 24 24 24 24 24 25 25 25 25 24 24 24 24 24 24 25 25 25 25 25 24 25 25 26 27 25 22 18 16 17 18 20 20 18 16 15 14 13 12 10 10 15 19 19 18 17 20 23 24 24 23 22 21 21 22 23 21 21 20 20 21 21 20 18 16 15 13 13 12 12 13 12
24 24 25 26 26 27 27 27 26 26 25 25 24 24 24 24 24 24 24 24 24 25 25 24 23 22 22 22 23 24 24 23 22 21 21 22 23 24 24 21 19 18 19 19 20 20 20 18 16 15 15 14 13 11 9 13 17 19 19 19 19 15 8 15 21 23 22 22 22 22 22 20 20 20 21 20 18 16 14 13 12 12 12 13 13 13
24 25 25 26 26 26 26 26 25 25 25 24 24 24 25 25 24 24 24 23 23 24 23 23 22 21 20 19 21 22 22 21 19 18 19 19 20 20 19 18 19 20 21 19 18 17 17 16 15 15 15 14 13 12 11 12 14 16 18 19 18 14 10 14 20 23 23 23 22 22 22 21 21 21 19 17 15 15 15 16 17 17 17 16 16 15
25 25 25 25 26 25 25 25 25 25 24 24 24 24 25 25 24 23 23 23 23 23 23 22 20 18 16 17 19 20 20 19 18 17 18 18 18 18 17 18 20 21 21 19 18 16 15 13 14 15 15 14 13 12 12 12 13 16 18 20 19 18 19 21 21 20 20 20 21 22 23 22 21 19 16 14 14 15 17 19 20 20 21 20 19 18
24 24 25 25 25 25 25 25 25 24 24 24 24 24 25 24 24 23 23 22 22 22 22 22 19 14 11 13 16 18 17 17 17 17 17 18 18 18 18 18 19 20 20 19 19 18 17 15 15 15 14 13 12 13 14 14 13 14 17 19 19 18 18 19 19 19 19 18 19 20 22 21 19 15 12 12 13 15 19 21 21 21 22 22 22 21
24 24 25 25 25 25 25 25 25 24 24 24 24 24 24 24 24 23 22 22 21 21 21 21 19 15 14 14 15 15 13 14 15 17 18 18 18 18 18 19 20 20 19 18 18 18 18 17 16 15 13 9 8 8 12 14 14 14 15 17 17 16 15 16 17 18 19 18 18 19 20 18 15 13 11 11 12 15 19 22 23 24 24 24 24 23
24 24 25 25 24 25 25 25 25 24 24 24 24 25 25 24 23 22 22 22 21 20 20 19 17 16 15 15 15 15 13 13 14 16 18 18 17 17 18 19 20 21 20 18 16 15 14 13 13 13 13 11 7 6 9 13 15 15 16 16 15 14 13 15 17 18 18 18 18 18 18 15 13 11 10 10 10 13 17 20 22 25 25 26 26 25
24 24 24 24 24 24 24 24 24 24 24 24 24 25 25 25 23 22 21 21 21 19 18 17 16 14 13 14 15 15 15 15 15 16 17 17 16 17 18 19 20 20 19 18 16 14 11 8 7 8 10 12 11 10 12 14 16 16 16 15 14 13 12 14 16 17 18 18 18 18 17 15 13 12 10 7 6 9 14 17 20 23 25 26 27 28
24 24 24 24 24 23 24 24 24 24 24 24 24 24 25 25 24 22 21 20 19 18 17 17 15 13 11 12 13 14 14 14 14 15 16 15 15 16 17 18 18 18 17 16 14 13 11 8 5 4 6 8 11 12 13 14 15 16 15 14 13 12 12 13 15 17 17 17 17 18 18 17 16 15 12 8 6 7 12 15 18 21 23 25 27 29
24 24 24 24 23 23 24 24 24 24 24 24 24 24 23 23 23 22 21 20 19 18 17 17 15 13 12 12 13 14 14 14 13 14 15 14 15 15 15 16 16 14 12 9 8 8 7 6 4 4 5 7 9 10 13 14 14 13 11 12 13 13 12 13 15 16 16 16 16 17 18 18 18 16 14 11 8 6 8 11 15 18 22 24 26 29
Wind_Direction
298 300 301 301 300 299 298 298 299 299 300 300 301 302 302 301 299 297 296 296 296 296 295 293 292 292 291 290 289 288 288 288 289 290 292 293 293 294 295 295 296 296 297 297 298 298 298 298 298 297 297 296 295 294 292 291 290 289 289 288 288 288 288 290 291 292 292 291 291 291 292 293 293 293 293 292 289 287 285 285 287 288 289 287 284 279
299 300 300 299 298 297 297 298 298 298 298 299 300 300 300 298 297 296 296 297 297 296 294 294 294 294 294 293 291 289 288 288 290 291 292 293 294 294 295 295 296 296 297 297 297 297 297 297 297 296 296 295 294 293 292 290 289 289 288 287 287 288 288 290 290 290 290 289 290 292 294 295 295 294 292 290 288 286 284 284 284 286 286 286 283 279
300 300 299 298 298 297 296 298 297 297 296 297 298 298 297 295 294 295 296 298 297 295 294 294 296 298 298 296 292 290 289 290 291 292 293 293 294 294 295 296 296 297 297 297 297 297 296 296 296 296 295 294 293 293 292 291 290 290 289 288 288 288 289 289 289 289 288 289 292 294 295 294 292 290 289 287 286 284 282 282 282 283 284 284 283 280
298 298 298 299 298 296 295 296 296 296 296 296 296 295 293 292 292 294 296 297 295 294 293 296 299 301 300 296 292 290 290 291 292 293 293 294 295 295 296 296 296 296 296 296 296 296 296 296 296 296 295 294 294 293 293 292 292 291 290 289 289 288 288 288 288 288 289 291 293 295 294 291 289 287 286 286 286 284 282 281 281 282 283 283 283 282
296 295 297 299 298 296 295 295 295 295 295 295 294 292 291 291 293 295 295 294 292 293 295 299 301 301 298 293 289 288 289 290 292 293 294 295 295 296 296 296 296 295 295 296 296 296 296 296 296 295 295 294 294 293 293 292 292 291 290 290 289 288 288 288 288 289 291 294 295 294 291 287 285 284 283 283 284 285 284 282 281 280 281 281 282 282
294 294 295 296 295 295 295 295 295 295 295 294 292 291 292 294 296 295 294 292 293 296 299 301 301 298 293 290 288 289 290 291 292 293 294 295 295 295 295 295 295 295 295 296 296 297 297 296 296 295 294 293 293 292 291 291 291 291 291 291 291 290 289 288 288 289 291 293 293 291 287 284 283 282 283 283 283 284 285 283 281 279 279 279 280 281
295 294 293 292 292 292 292 293 294 294 294 293 293 295 297 298 297 294 293 294 297 301 302 301 299 296 292 291 291 292 293 293 294 295 295 295 295 294 294 294 294 295 295 296 296 296 296 296 295 295 293 292 291 291 290 290 291 292 293 293 293 292 291 289 289 289 290 291 290 288 285 283 282 283 284 285 285 285 286 285 284 281 280 279 280 281
294 292 290 290 290 291 291 291 292 292 293 294 297 300 301 301 298 296 297 299 302 304 303 302 300 297 295 294 295 295 295 295 295 295 295 294 294 293 293 294 294 295 295 296 296 296 296 296 295 294 293 292 291 290 290 291 291 292 293 293 293 291 290 289 289 288 288 288 287 285 283 282 283 284 285 286 287 288 289 289 287 285 283 282 281 282
290 289 289 289 290 291 293 294 294 297 299 300 301 302 303 303 302 301 302 302 303 304 303 302 301 299 297 296 296 296 295 295 295 294 294 294 293 293 293 294 294 295 295 296 296 296 296 295 295 294 293 292 291 291 291 292 292 292 292 291 290 290 289 288 287 287 286 285 284 283 281 282 283 284 285 286 288 289 290 290 289 287 285 284 284 285
286 286 288 290 291 293 298 302 305 308 308 305 302 300 300 301 303 303 303 303 303 303 303 302 300 299 298 297 296 296 295 295 294 294 293 292 292 291 292 293 294 294 295 296 296 296 296 295 295 294 293 292 292 292 291 291 291 291 291 290 289 289 288 287 286 285 284 283 282 281 281 282 284 286 286 287 288 288 289 289 288 286 285 285 287 288
285 287 291 298 303 306 307 308 310 312 312 308 304 300 297 298 301 304 305 304 304 304 303 301 299 298 298 298 297 297 297 296 295 293 292 290 290 290 290 291 292 293 295 296 296 296 296 295 294 293 292 291 291 291 290 290 290 290 290 289 289 289 288 287 286 285 284 283 282 282 282 284 286 287 288 289 289 289 289 288 286 285 283 284 286 287
289 299 307 312 313 312 311 311 312 313 313 309 305 302 300 301 303 305 304 304 303 303 303 301 299 297 296 297 298 298 297 296 294 293 291 290 289 289 290 291 293 294 295 296 296 295 294 293 292 291 290 290 289 289 289 289 289 289 289 290 290 289 289 288 287 285 284 284 283 284 284 284 285 285 287 288 289 290 289 288 286 284 282 281 282 283
308 314 314 312 311 312 313 314 314 312 309 306 303 302 303 304 305 305 302 300 300 301 301 300 298 296 296 297 298 298 296 294 292 290 289 288 288 289 291 293 295 296 296 296 295 293 292 291 290 289 288 288 288 288 288 288 288 289 289 289 289 288 287 287 286 285 285 285 285 285 284 283 283 284 285 287 288 288 288 287 285 283 281 280 280 282
314 313 312 311 311 312 313 313 311 309 305 303 302 302 303 304 304 303 300 298 298 298 298 297 295 295 296 297 298 297 294 291 289 288 287 286 287 290 294 295 296 296 295 294 292 291 290 289 288 287 286 286 285 285 286 287 287 288 289 288 288 287 286 286 286 286 286 287 287 286 284 284 285 286 287 288 288 288 286 284 283 281 280 280 281 283
311 311 310 310 310 311 311 310 308 304 302 301 301 302 302 302 301 300 299 298 298 298 297 295 294 295 296 298 299 297 293 290 288 288 289 289 290 293 296 296 295 294 293 292 290 288 288 287 286 285 284 283 283 283 284 285 286 287 288 288 287 286 286 287 287 287 287 287 287 287 287 288 289 289 288 288 288 286 284 282 280 279 278 279 280 282
311 311 310 309 308 308 308 307 305 303 301 301 301 300 300 299 299 299 298 297 297 297 296 295 295 295 297 300 301 299 295 292 292 294 295 295 295 296 298 296 294 292 291 290 288 288 287 286 284 283 282 281 281 282 283 284 285 286 287 288 287 287 288 289 289 288 288 288 288 289 290 290 290 289 288 287 285 284 282 279 278 276 276 276 278 280
311 311 309 308 307 306 306 305 303 301 300 299 298 297 296 295 296 296 296 295 294 293 293 293 293 293 299 303 304 303 302 305 304 303 300 298 297 297 298 296 292 290 290 288 287 287 286 284 283 282 281 280 280 280 281 284 286 288 289 289 289 289 290 290 289 289 289 289 289 289 289 289 288 287 286 285 284 282 279 277 276 275 275 275 276 277
311 310 308 307 305 305 305 303 301 299 298 297 296 296 295 294 293 293 293 291 290 288 288 289 288 289 296 302 304 306 312 314 311 306 301 298 296 297 297 294 290 288 288 287 286 285 283 282 281 281 280 278 278 280 284 287 289 289 289 288 287 287 287 287 287 287 287 288 288 287 287 286 286 285 284 284 282 280 278 277 276 275 275 275 275 275
309 308 307 305 304 303 302 299 297 296 295 296 296 296 295 294 292 290 288 287 285 284 285 286 288 291 296 297 300 304 311 312 309 304 299 296 295 296 296 294 290 287 286 285 284 283 281 280 279 278 278 279 282 285 289 290 289 288 287 285 284 284 284 284 285 285 285 285 285 285 285 285 284 283 282 282 281 281 280 278 277 276 275 274 274 273
305 305 304 304 303 301 298 295 293 293 293 294 295 294 292 291 290 287 284 282 283 286 290 292 295 297 298 297 299 303 308 309 306 301 296 294 293 294 295 293 289 286 284 284 283 282 280 279 280 281 283 285 288 290 290 289 288 287 286 285 285 284 284 284 284 284 285 284 284 285 285 285 284 283 282 282 281 281 280 278 276 275 274 273 272 271
302 302 302 301 300 297 294 292 291 291 292 292 291 289 288 287 286 285 285 289 292 295 297 297 296 297 298 298 298 301 304 305 302 297 295 293 292 292 293 291 288 285 283 282 281 280 280 282 285 288 290 290 289 289 288 288 287 287 286 286 286 286 286 286 286 285 285 285 285 286 286 286 286 285 284 282 281 279 277 275 273 272 271 271 271 270
299 299 300 298 296 292 290 289 290 290 291 289 287 286 287 290 292 296 299 301 300 299 297 296 295 296 297 296 297 299 301 299 295 292 292 289 288 290 292 290 286 282 280 280 282 285 288 291 291 291 291 290 289 288 287 287 287 287 287 287 287 287 287 286 286 286 285 285 285 286 287 287 286 285 284 282 280 277 274 272 270 270 270 271 271 271
297 297 297 296 294 291 289 289 290 292 293 291 291 292 294 297 299 300 300 299 298 296 295 295 295 296 296 295 295 296 296 293 290 288 287 283 285 289 291 289 285 281 280 284 291 296 296 295 293 292 290 289 288 287 287 287 287 287 287 287 287 287 287 287 287 286 285 285 285 285 285 285 285 284 283 281 278 275 273 272 273 273 274 274 273 272
298 296 295 295 293 292 292 294 297 300 302 300 299 298 298 298 298 297 296 295 294 295 296 297 298 297 296 295 295 294 294 291 288 286 285 282 283 287 289 288 286 285 289 294 298 299 297 294 292 290 289 287 287 286 286 286 286 287 287 287 287 288 288 287 286 286 285 285 285 284 284 284 284 284 283 282 280 279 278 278 278 278 277 275 274 272
299 297 295 295 297 299 301 303 304 304 303 303 302 301 300 299 298 296 295 295 296 297 299 299 298 296 296 296 295 294 293 292 287 283 281 281 282 284 287 290 293 295 296 297 297 296 294 292 290 289 287 286 286 285 285 285 285 286 286 286 287 287 287 286 285 285 285 285 284 284 284 284 284 283 283 282 282 281 281 280 279 278 277 275 274 272
298 297 298 300 302 304 304 304 303 303 302 302 302 301 301 300 299 297 297 297 299 300 300 297 293 292 294 295 294 293 294 293 288 281 277 278 281 285 290 295 297 297 295 295 295 293 292 290 290 289 287 285 284 283 282 282 283 284 284 285 285 284 284 284 284 285 285 285 285 285 284 284 283 282 282 281 281 280 279 279 278 277 276 275 274 272
300 301 302 304 305 305 304 304 303 303 303 302 301 301 300 299 299 298 298 300 301 301 299 292 288 290 292 292 292 292 294 294 290 284 277 277 280 287 293 297 297 295 294 294 293 292 290 289 287 286 285 282 281 280 280 280 281 282 282 282 281 281 282 283 284 285 285 285 284 284 283 283 282 281 280 279 278 278 278 277 277 276 275 274 273 272
305 306 306 306 305 305 304 304 304 303 303 302 301 300 299 298 298 298 299 301 301 299 295 291 290 290 289 286 290 293 294 292 290 286 283 282 283 289 294 297 297 295 294 294 294 292 289 286 284 282 281 280 280 280 280 280 280 280 280 280 280 281 282 283 284 284 284 283 282 282 281 280 280 279 278 278 277 277 276 276 276 275 274 273 271 269
309 308 307 306 305 305 304 304 303 302 301 300 299 298 297 297 296 296 297 298 297 295 291 289 288 288 287 287 291 293 292 291 290 291 293 292 290 291 294 296 296 296 296 296 295 294 290 286 284 282 281 282 283 283 283 283 281 280 279 279 281 282 283 283 283 282 282 282 281 281 280 280 280 279 279 278 278 277 276 276 275 274 273 271 268 265
311 309 308 306 306 305 304 303 302 301 299 298 298 297 296 295 293 292 292 293 292 289 289 289 289 289 289 290 290 289 289 292 296 299 302 299 293 291 294 295 294 295 297 298 297 295 291 291 291 289 288 289 289 288 287 285 283 281 280 281 282 282 282 282 282 282 282 282 282 282 282 282 282 281 281 280 279 278 276 275 274 273 271 267 264 261
310 309 307 307 306 305 304 303 302 300 299 297 297 296 295 294 291 290 290 289 287 285 286 288 289 289 290 290 289 287 289 297 299 302 302 297 291 289 292 293 293 294 295 295 295 295 295 295 297 298 296 294 292 290 288 285 282 282 283 283 283 282 282 283 284 285 286 286 286 286 285 285 284 283 281 280 279 277 276 274 272 270 268 264 261 257
308 307 306 306 305 305 304 303 302 300 299 298 297 296 295 293 291 290 289 287 285 283 284 285 287 288 288 286 286 287 291 295 297 299 299 295 290 290 291 292 292 294 294 291 289 290 296 299 302 301 299 295 292 289 287 285 283 283 286 286 285 284 286 288 290 291 291 290 289 288 286 285 283 282 280 279 278 276 275 273 271 268 265 262 258 255
306 305 305 304 304 303 302 302 301 301 300 299 298 296 295 294 293 291 289 287 285 284 283 284 286 287 286 285 283 284 287 291 294 297 297 295 292 291 292 292 292 293 294 291 288 286 286 289 297 299 297 293 291 290 289 289 288 287 287 288 288 289 292 293 294 294 293 292 290 288 287 285 283 282 280 279 278 276 274 272 269 266 262 259 256 253
304 303 303 303 303 303 302 302 302 301 301 300 299 298 297 296 294 292 291 288 287 286 285 285 285 286 287 286 285 285 287 289 293 296 297 295 292 291 292 292 293 294 294 293 291 290 287 287 290 294 295 294 293 293 294 294 293 292 293 295 296 296 296 296 295 294 292 291 290 288 287 286 284 283 282 281 279 276 274 271 269 265 260 256 253 251
302 302 302 303 304 304 304 304 303 303 302 301 300 300 299 298 297 295 293 291 290 289 287 285 284 284 285 286 286 287 289 291 294 296 297 294 291 290 291 291 293 294 294 293 292 290 285 286 288 289 292 295 296 297 297 297 298 301 302 302 300 298 296 295 293 293 291 291 289 288 287 286 286 285 284 282 280 277 275 273 270 266 261 257 253 250
301 301 303 304 305 306 306 306 305 305 304 303 302 302 301 300 299 297 295 294 293 292 289 287 285 284 283 283 284 285 287 290 293 294 294 292 290 289 289 290 292 293 292 291 290 287 282 283 288 292 293 293 297 300 301 303 305 306 305 303 300 297 295 293 292 291 290 289 288 287 287 286 286 285 284 282 281 279 277 275 272 269 265 260 255 251
300 301 304 306 307 307 307 307 307 306 306 305 304 304 303 302 300 299 297 296 294 293 292 289 288 286 283 282 282 283 285 287 289 291 290 289 288 286 285 287 290 290 289 288 288 288 288 288 291 294 293 292 296 304 306 307 308 306 304 302 300 298 295 293 292 290 288 287 286 286 286 287 286 285 284 283 282 282 280 277 275 272 269 265 260 255
301 303 306 307 308 308 308 307 307 306 306 306 305 304 303 302 301 299 297 296 294 293 293 291 289 288 287 285 283 283 285 285 286 287 288 288 286 285 284 285 286 286 285 284 286 288 291 294 298 299 299 298 300 302 304 306 306 305 304 303 301 297 295 294 294 292 289 287 286 287 288 287 286 285 284 284 284 284 283 282 280 277 273 270 266 262
304 306 307 308 309 309 308 307 306 306 306 305 304 303 302 301 301 300 298 297 296 295 294 292 290 289 289 288 286 286 286 286 286 287 288 288 286 285 285 285 285 285 284 284 285 289 294 299 303 305 306 305 302 301 302 302 303 304 305 305 304 301 298 297 297 295 292 289 288 288 288 288 287 286 285 286 286 284 282 280 279 277 274 272 272 270
307 308 308 309 308 308 307 306 305 306 305 305 304 303 302 301 302 302 301 300 298 297 296 294 292 290 289 288 288 287 288 288 288 288 288 288 287 287 285 285 285 285 286 288 291 296 302 303 302 300 299 298 297 299 300 301 301 304 306 307 306 304 304 302 300 297 295 293 290 289 290 291 292 291 291 290 289 286 282 280 280 279 277 277 280 282
309 309 309 309 308 307 306 305 305 305 306 306 305 304 304 303 304 304 304 303 302 301 301 299 296 294 292 291 290 290 290 290 289 289 289 290 291 290 288 286 286 287 291 298 303 305 304 300 297 295 293 292 292 294 296 298 300 303 304 302 301 302 303 303 301 299 299 298 297 296 296 297 299 299 299 299 296 294 292 289 289 291 296 301 309 316
309 308 308 308 308 307 307 306 306 306 307 307 306 305 304 305 305 305 305 306 305 305 305 303 301 299 297 295 295 295 295 294 293 292 293 295 297 295 292 290 290 295 305 310 308 303 299 295 292 289 289 291 292 293 295 298 300 301 300 298 300 303 304 304 305 305 306 304 304 304 303 303 304 305 306 305 306 307 310 310 311 315 323 335 347 356
309 308 307 307 307 307 307 308 308 308 309 308 307 306 305 306 305 305 305 304 305 305 306 305 302 299 298 298 300 302 301 300 298 298 299 302 303 301 299 298 301 307 311 308 303 299 296 293 289 286 287 289 291 292 293 296 299 299 298 298 301 303 305 307 309 310 311 309 308 308 309 309 310 310 312 313 317 324 334 342 349 357 2 6 11 17
308 307 307 307 308 308 309 309 310 310 309 308 307 306 306 307 306 305 305 304 303 303 303 303 302 300 298 299 302 305 305 303 303 304 306 308 310 309 307 307 309 309 307 301 296 294 294 293 289 286 287 287 288 288 289 292 295 297 298 300 300 298 293 298 304 307 309 309 310 312 314 316 317 318 319 324 334 347 359 8 15 20 24 27 28 29
309 309 309 309 310 310 310 310 310 310 309 308 307 306 308 308 307 307 306 304 303 303 303 304 303 302 303 303 304 306 307 307 308 311 314 316 317 316 313 312 311 310 306 299 293 290 288 288 288 288 288 286 284 281 283 286 291 295 299 302 302 298 294 296 298 301 304 306 310 314 320 324 324 324 325 333 348 5 15 20 23 24 27 30 32 32
310 311 311 311 311 310 309 310 310 310 310 309 308 308 309 309 309 308 306 305 303 303 304 305 304 302 302 304 306 307 308 311 315 318 321 320 319 318 317 317 316 313 309 302 296 290 284 280 280 283 286 285 282 280 279 283 287 293 299 303 305 304 301 300 301 302 303 306 311 318 326 331 332 331 332 343 0 16 25 28 28 27 28 30 32 33
312 312 312 311 310 310 310 311 312 311 311 310 310 309 310 310 310 309 308 306 305 304 306 307 305 301 300 302 305 307 309 314 319 322 323 322 321 322 324 324 324 321 315 308 302 295 288 281 276 274 275 277 280 282 282 285 288 293 298 303 305 306 305 305 306 309 313 315 318 325 333 337 337 338 345 359 14 24 29 31 32 32 32 32 32 33
312 312 311 311 310 310 311 312 313 312 311 310 310 311 312 312 311 310 308 308 307 307 307 307 305 303 301 302 305 308 312 317 321 323 323 323 324 327 330 331 330 329 327 322 316 309 300 291 280 271 266 262 266 281 288 292 295 297 299 302 304 304 305 306 312 319 325 329 334 339 342 342 341 340 346 3 21 30 31 30 31 33 34 34 35 35
312 311 311 310 310 310 311 312 313 313 312 311 311 312 313 314 313 311 309 309 308 307 306 306 305 305 305 306 309 312 317 321 323 323 322 323 327 332 336 336 336 335 335 336 336 337 334 322 296 275 268 263 266 279 290 297 300 302 302 303 304 304 306 310 319 327 335 341 348 355 359 359 358 358 359 7 20 31 32 30 30 32 34 36 37 38
312 311 311 311 310 310 310 311 312 312 311 311 312 312 313 314 314 313 311 310 308 307 306 305 305 305 307 310 314 319 323 326 325 324 323 326 332 337 338 338 338 339 341 342 345 349 351 348 332 305 294 282 281 286 293 298 303 307 309 310 311 313 314 318 326 334 342 348 357 6 12 14 16 17 21 25 30 34 36 33 29 29 32 36 39 41
312 311 311 311 310 310 310 311 311 311 311 311 311 311 312 313 314 314 314 312 311 310 308 307 306 307 310 314 319 323 327 327 325 324 324 328 335 339 338 337 338 341 343 344 345 346 345 345 342 337 334 334 325 314 307 304 306 311 316 321 326 329 329 329 334 341 349 358 8 17 21 22 22 23 26 32 35 36 37 35 29 27 31 37 41 43